"startDT [UTC]","vpos","CH4 [ppm]","stdev(CH4) [ppm]","CO2 [ppm]","stdev(CO2) [ppm]","H2O [ppm]","stdev(H2O)","p_LGR [torr]","T_LGR [C]","mt1_LGR [us]","mt2_LGR [us]","T_ECpre [C]","T_EC1 [C]","T_EC2 [C]","p_inlet [hPa]","p_in [hPa]","p_out [hPa]","T_inlet [C]","RH_inlet [%]","dwpt_inlet [C]","T_vent [C]","RH_vent [%]","dwpt_vent [C]","flow_vent [l min-1]","flow_inlet [l min-1]","dwpt_sample [C]","T_room [C]"
2012-01-04 00:00:00,0.0,1.9433,0.0010,405.09,0.18,12.5,20.8,138.12,27.80,24.59,36.29,0.04,-272.74,-272.75,-46,548,-924,22.3,2.0,-29.5,22.3,2.0,-29.1,5.73,2.34,-28.5,27.4
2012-01-04 00:01:00,0.0,1.9437,0.0008,405.26,0.20,10.2,17.6,138.12,27.82,24.59,36.28,0.04,-272.74,-272.74,-46,548,-924,22.3,2.0,-29.6,22.3,2.0,-29.1,5.73,2.34,-28.5,27.5
2012-01-04 00:02:00,0.0,1.9441,0.0008,405.18,0.20,11.3,18.6,138.12,27.83,24.59,36.29,0.04,-272.74,-272.74,-46,549,-924,22.3,2.0,-29.5,22.3,2.0,-29.1,5.73,2.50,-28.4,27.5
2012-01-04 00:03:00,0.0,1.9444,0.0009,405.25,0.24,13.1,20.2,138.12,27.84,24.59,36.28,0.04,-272.74,-272.73,-46,548,-924,22.3,2.0,-29.5,22.3,2.0,-29.0,5.73,2.28,-28.4,27.6
2012-01-04 00:04:00,0.0,1.9437,0.0008,405.21,0.22,13.9,19.0,138.11,27.85,24.59,36.29,0.04,-272.74,-272.75,-46,549,-924,22.4,2.0,-29.5,22.4,2.1,-29.0,5.73,2.44,-28.3,27.6
2012-01-04 00:05:00,0.0,1.9442,0.0009,405.17,0.21,13.1,18.4,138.11,27.86,24.59,36.29,0.04,-272.74,-272.74,-46,549,-926,22.4,2.0,-29.5,22.4,2.0,-29.0,5.73,2.42,-28.3,27.7
2012-01-04 00:06:00,0.0,1.9440,0.0008,405.27,0.18,24.0,23.0,138.11,27.88,24.59,36.29,0.04,-272.74,-272.74,-48,547,-923,22.4,2.0,-29.3,22.5,2.0,-29.0,5.73,2.29,-28.2,27.7
2012-01-04 00:07:00,0.0,1.9441,0.0009,405.18,0.21,17.8,23.4,138.11,27.89,24.59,36.29,0.04,-272.74,-272.74,-46,549,-924,22.5,2.0,-29.3,22.5,2.0,-29.0,5.73,2.51,-28.2,27.8
2012-01-04 00:08:00,0.0,1.9441,0.0009,405.18,0.22,27.1,28.0,138.11,27.90,24.60,36.29,0.04,-272.73,-272.74,-45,549,-924,22.5,2.0,-29.3,22.5,2.1,-28.9,5.73,2.30,-28.2,27.8
2012-01-04 00:09:00,0.0,1.9444,0.0008,405.16,0.19,24.0,21.4,138.11,27.91,24.59,36.30,0.04,-272.74,-272.74,-46,550,-925,22.5,2.0,-29.3,22.5,2.1,-28.8,5.73,2.42,-28.1,27.8
2012-01-04 00:10:00,0.0,1.9451,0.0010,405.24,0.26,21.7,23.2,138.11,27.92,24.59,36.29,0.04,-272.74,-272.74,-46,550,-925,22.6,2.0,-29.2,22.6,2.1,-28.9,5.73,2.42,-28.1,27.9
2012-01-04 00:11:00,0.0,1.9450,0.0008,405.19,0.18,21.7,23.0,138.11,27.94,24.59,36.30,0.04,-272.74,-272.74,-45,550,-925,22.6,2.0,-29.3,22.6,2.0,-28.9,5.73,2.30,-28.1,28.0
2012-01-04 00:12:00,0.0,1.9449,0.0009,405.27,0.21,29.9,25.3,138.11,27.95,24.59,36.29,0.04,-272.74,-272.74,-46,550,-924,22.6,2.0,-29.3,22.6,2.0,-28.9,5.73,2.50,-28.0,28.0
2012-01-04 00:13:00,0.0,1.9452,0.0008,405.28,0.19,22.8,22.4,138.11,27.96,24.59,36.29,0.04,-272.73,-272.74,-46,550,-925,22.7,2.0,-29.3,22.7,2.0,-28.9,5.73,2.29,-28.0,27.8
2012-01-04 00:14:00,0.0,1.9441,0.0008,405.26,0.21,21.6,25.6,138.12,27.96,24.59,36.29,0.04,-272.74,-272.74,-46,551,-925,22.6,2.0,-29.3,22.6,2.0,-29.0,5.73,2.35,-28.3,27.4
2012-01-04 00:15:00,0.0,1.9444,0.0007,405.28,0.20,8.2,14.9,138.12,27.96,24.59,36.29,0.04,-272.74,-272.74,-46,551,-925,22.6,2.0,-29.4,22.6,2.0,-29.1,5.73,2.39,-28.5,27.2
2012-01-04 00:16:00,0.0,1.9440,0.0009,405.29,0.22,2.9,9.6,138.13,27.95,24.59,36.29,0.04,-272.74,-272.74,-46,551,-925,22.5,2.0,-29.4,22.4,2.0,-29.2,5.73,2.39,-28.8,26.9
2012-01-04 00:17:00,0.0,1.9440,0.0009,405.41,0.21,1.0,5.9,138.14,27.93,24.59,36.29,0.04,-272.74,-272.74,-46,550,-925,22.4,2.0,-29.5,22.4,2.0,-29.2,5.73,2.40,-29.1,26.8
2012-01-04 00:18:00,0.0,1.9441,0.0009,405.43,0.23,-1.0,0.0,138.14,27.91,24.59,36.29,0.04,-272.74,-272.74,-46,550,-925,22.3,2.0,-29.6,22.2,2.0,-29.2,5.73,2.40,-29.3,26.6
2012-01-04 00:19:00,0.0,1.9433,0.0010,405.45,0.24,-1.0,0.4,138.15,27.88,24.59,36.29,0.04,-272.74,-272.74,-46,550,-925,22.2,2.0,-29.5,22.1,2.0,-29.2,5.73,2.40,-29.5,26.4
2012-01-04 00:20:00,0.0,1.9424,0.0009,405.41,0.24,-1.0,0.0,138.16,27.85,24.59,36.29,0.04,-272.73,-272.74,-46,550,-925,22.1,2.0,-29.5,22.0,2.0,-29.3,5.73,2.40,-29.7,26.3
2012-01-04 00:21:00,0.0,1.9419,0.0009,405.39,0.25,-1.0,0.0,138.16,27.82,24.59,36.28,0.04,-272.73,-272.75,-46,550,-924,22.0,2.0,-29.5,21.9,2.0,-29.4,5.73,2.41,-29.9,26.1
2012-01-04 00:22:00,0.0,1.9405,0.0009,405.25,0.22,-1.0,0.0,138.17,27.78,24.59,36.29,0.04,-272.74,-272.74,-46,549,-925,21.9,2.0,-29.6,21.8,2.0,-29.4,5.73,2.38,-30.0,26.1
2012-01-04 00:23:00,0.0,1.9402,0.0008,405.26,0.22,-1.0,0.0,138.16,27.74,24.59,36.28,0.04,-272.74,-272.74,-46,549,-927,21.9,2.0,-29.5,21.8,2.1,-29.3,5.73,2.41,-29.9,26.3
2012-01-04 00:24:00,0.0,1.9405,0.0008,405.26,0.21,-0.9,0.7,138.16,27.72,24.59,36.28,0.04,-272.74,-272.74,-46,548,-925,21.9,2.0,-29.5,21.8,2.1,-29.3,5.73,2.50,-29.9,26.5
2012-01-04 00:25:00,0.0,1.9402,0.0009,405.24,0.24,-0.4,4.4,138.15,27.70,24.59,36.28,0.04,-272.74,-272.74,-46,548,-924,21.9,2.0,-29.6,21.8,2.0,-29.4,5.73,2.31,-29.8,26.7
2012-01-04 00:26:00,0.0,1.9410,0.0010,405.27,0.23,-0.5,2.5,138.15,27.69,24.59,36.27,0.04,-272.74,-272.74,-46,548,-924,21.9,2.0,-29.7,21.9,2.0,-29.4,5.73,2.39,-29.6,26.7
2012-01-04 00:27:00,0.0,1.9416,0.0010,405.23,0.25,-0.8,1.0,138.15,27.69,24.58,36.28,0.04,-272.74,-272.74,-46,548,-924,21.9,2.0,-29.6,21.9,2.1,-29.3,5.73,2.48,-29.5,26.8
2012-01-04 00:28:00,0.0,1.9416,0.0010,405.22,0.18,-0.6,2.5,138.14,27.69,24.59,36.28,0.04,-272.74,-272.74,-46,548,-924,21.9,2.0,-29.6,21.9,2.0,-29.4,5.73,2.28,-29.5,26.8
2012-01-04 00:29:00,0.0,1.9419,0.0009,405.23,0.22,-1.0,0.0,138.14,27.69,24.59,36.28,0.04,-272.74,-272.74,-46,548,-924,21.9,2.0,-29.6,22.0,2.0,-29.3,5.73,2.41,-29.4,26.9
2012-01-04 00:30:00,0.0,1.9425,0.0010,405.32,0.22,-0.6,2.2,138.14,27.70,24.59,36.28,0.04,-272.74,-272.74,-46,548,-924,21.9,2.0,-29.6,22.0,2.0,-29.3,5.73,2.48,-29.3,26.9
2012-01-04 00:31:00,0.0,1.9431,0.0009,405.28,0.24,-0.9,0.7,138.13,27.70,24.59,36.28,0.04,-272.74,-272.74,-46,548,-924,22.0,2.0,-29.6,22.0,2.0,-29.3,5.73,2.28,-29.2,26.9
2012-01-04 00:32:00,0.0,1.9433,0.0009,405.25,0.21,-0.1,2.8,138.13,27.71,24.59,36.28,0.04,-272.74,-272.74,-46,548,-924,22.0,2.0,-29.6,22.1,2.0,-29.2,5.73,2.42,-29.1,27.0
2012-01-04 00:33:00,0.0,1.9438,0.0008,405.20,0.22,0.7,5.6,138.13,27.72,24.59,36.28,0.04,-272.74,-272.74,-46,547,-924,22.0,2.0,-29.6,22.1,2.0,-29.2,5.73,2.46,-29.1,27.0
2012-01-04 00:34:00,0.0,1.9436,0.0010,405.18,0.20,2.1,9.2,138.13,27.73,24.59,36.28,0.04,-272.74,-272.74,-46,548,-924,22.1,2.0,-29.5,22.1,2.0,-29.2,5.73,2.27,-29.0,27.1
2012-01-04 00:35:00,0.0,1.9437,0.0009,405.07,0.20,0.4,4.6,138.13,27.74,24.59,36.29,0.04,-272.74,-272.74,-46,548,-924,22.1,2.0,-29.6,22.1,2.0,-29.2,5.73,2.44,-28.9,27.1
2012-01-04 00:36:00,0.0,1.9444,0.0010,405.20,0.22,1.5,9.4,138.12,27.75,24.58,36.28,0.04,-272.74,-272.74,-46,548,-924,22.1,2.0,-29.5,22.2,2.0,-29.2,5.73,2.44,-28.9,27.2
2012-01-04 00:37:00,0.0,1.9442,0.0007,405.18,0.25,2.9,8.6,138.12,27.77,24.59,36.28,0.04,-272.74,-272.74,-46,548,-924,22.1,2.0,-29.5,22.2,2.0,-29.2,5.73,2.28,-28.8,27.2
2012-01-04 00:38:00,0.0,1.9444,0.0008,405.19,0.21,9.0,19.2,138.12,27.78,24.59,36.28,0.04,-272.74,-272.74,-46,548,-924,22.2,2.0,-29.6,22.2,2.0,-29.3,5.73,2.48,-28.7,27.2
2012-01-04 00:39:00,0.0,1.9445,0.0009,405.19,0.23,5.6,14.7,138.12,27.79,24.59,36.28,0.04,-272.74,-272.74,-46,548,-924,22.2,2.0,-29.6,22.2,2.0,-29.3,5.73,2.40,-28.7,27.3
2012-01-04 00:40:00,0.0,1.9445,0.0009,405.20,0.25,5.5,14.0,138.12,27.80,24.59,36.29,0.04,-272.74,-272.74,-46,548,-924,22.2,2.0,-29.5,22.3,2.0,-29.2,5.73,2.30,-28.6,27.4
2012-01-04 00:41:00,0.0,1.9447,0.0010,405.28,0.21,9.7,18.3,138.12,27.82,24.59,36.28,0.04,-272.74,-272.74,-46,549,-924,22.3,2.0,-29.5,22.3,2.0,-29.1,5.73,2.50,-28.6,27.4
2012-01-04 00:42:00,0.0,1.9442,0.0008,405.24,0.22,10.3,19.4,138.12,27.83,24.59,36.28,0.04,-272.74,-272.74,-45,548,-924,22.3,2.0,-29.6,22.3,2.0,-29.1,5.73,2.34,-28.5,27.5
2012-01-04 00:43:00,0.0,1.9446,0.0010,405.20,0.18,10.7,18.5,138.11,27.84,24.59,36.29,0.04,-272.74,-272.74,-46,549,-924,22.3,2.0,-29.5,22.4,2.0,-29.0,5.73,2.35,-28.5,27.5
2012-01-04 00:44:00,0.0,1.9441,0.0008,405.22,0.18,18.6,26.4,138.11,27.85,24.59,36.29,0.04,-272.74,-272.74,-46,549,-924,22.3,2.0,-29.5,22.4,2.0,-29.1,5.73,2.49,-28.4,27.6
2012-01-04 00:45:00,0.0,1.9444,0.0009,405.19,0.20,17.9,22.6,138.11,27.86,24.59,36.29,0.04,-272.74,-272.74,-45,549,-924,22.4,2.0,-29.5,22.4,2.0,-29.1,5.73,2.28,-28.4,27.6
2012-01-04 00:46:00,0.0,1.9448,0.0009,405.22,0.17,19.3,24.9,138.11,27.88,24.59,36.29,0.04,-272.73,-272.74,-46,549,-925,22.4,2.0,-29.5,22.4,2.0,-29.0,5.73,2.44,-28.3,27.7
2012-01-04 00:47:00,0.0,1.9445,0.0009,405.17,0.20,20.7,23.3,138.11,27.89,24.59,36.29,0.04,-272.74,-272.74,-47,549,-924,22.5,2.0,-29.4,22.5,2.0,-29.0,5.73,2.41,-28.3,27.8
2012-01-04 00:48:00,0.0,1.9448,0.0008,405.15,0.19,21.3,24.4,138.11,27.90,24.59,36.29,0.04,-272.74,-272.74,-45,550,-924,22.5,2.0,-29.4,22.5,2.0,-29.0,5.73,2.30,-28.2,27.8
2012-01-04 00:49:00,0.0,1.9452,0.0008,405.06,0.21,22.3,24.9,138.11,27.91,24.59,36.30,0.04,-272.74,-272.74,-46,549,-924,22.5,2.0,-29.4,22.5,2.0,-29.0,5.73,2.50,-28.2,27.9
2012-01-04 00:50:00,0.0,1.9450,0.0009,405.18,0.19,30.6,27.3,138.11,27.93,24.59,36.29,0.04,-272.74,-272.74,-48,550,-925,22.5,2.0,-29.4,22.6,2.0,-29.1,5.73,2.29,-28.2,27.9
2012-01-04 00:51:00,0.0,1.9449,0.0009,405.08,0.25,24.6,25.5,138.11,27.94,24.59,36.30,0.04,-272.74,-272.74,-46,548,-925,22.6,2.0,-29.4,22.6,2.0,-29.1,5.73,2.43,-28.1,28.0
2012-01-04 00:52:00,0.0,1.9451,0.0009,405.10,0.19,34.0,28.5,138.11,27.95,24.59,36.30,0.04,-272.74,-272.74,-46,550,-924,22.6,2.0,-29.4,22.6,2.0,-29.0,5.73,2.41,-28.1,28.0
2012-01-04 00:53:00,0.0,1.9450,0.0009,405.10,0.23,32.7,26.0,138.11,27.96,24.59,36.30,0.04,-272.74,-272.74,-46,550,-924,22.7,2.0,-29.3,22.7,2.0,-29.0,5.73,2.31,-28.1,28.0
2012-01-04 00:54:00,0.0,1.9448,0.0007,405.28,0.22,23.2,25.5,138.11,27.97,24.60,36.29,0.04,-272.74,-272.74,-46,550,-925,22.7,1.9,-29.4,22.7,2.0,-29.0,5.73,2.48,-28.2,27.6
2012-01-04 00:55:00,0.0,1.9449,0.0009,405.26,0.18,13.8,18.1,138.12,27.97,24.59,36.30,0.04,-272.74,-272.74,-46,551,-925,22.6,1.9,-29.5,22.6,2.0,-29.2,5.73,2.43,-28.4,27.3
2012-01-04 00:56:00,0.0,1.9443,0.0007,405.29,0.23,4.2,12.8,138.12,27.97,24.60,36.29,0.04,-272.74,-272.74,-46,550,-925,22.6,1.9,-29.5,22.5,2.0,-29.2,5.73,2.41,-28.7,27.1
2012-01-04 00:57:00,0.0,1.9453,0.0010,405.19,0.25,-0.0,3.7,138.13,27.95,24.59,36.29,0.04,-272.74,-272.74,-46,550,-925,22.5,1.9,-29.6,22.4,2.0,-29.3,5.73,2.39,-29.0,26.9
2012-01-04 00:58:00,0.0,1.9449,0.0007,405.38,0.24,0.7,6.0,138.14,27.93,24.60,36.29,0.04,-272.74,-272.74,-46,550,-925,22.4,2.0,-29.5,22.3,2.0,-29.3,5.73,2.39,-29.2,26.6
2012-01-04 00:59:00,0.0,1.9448,0.0009,405.40,0.23,-0.9,1.0,138.15,27.91,24.59,36.30,0.04,-272.74,-272.74,-46,550,-925,22.3,2.0,-29.6,22.2,2.0,-29.3,5.73,2.38,-29.4,26.5
2012-01-04 01:00:00,0.0,1.9443,0.0009,405.36,0.24,-1.0,0.0,138.15,27.88,24.59,36.29,0.04,-272.74,-272.74,-46,550,-925,22.2,2.0,-29.5,22.1,2.0,-29.3,5.73,2.38,-29.6,26.4
2012-01-04 01:01:00,0.0,1.9436,0.0009,405.32,0.21,-1.0,0.0,138.16,27.85,24.59,36.29,0.04,-272.74,-272.74,-46,549,-925,22.1,2.0,-29.5,22.0,2.0,-29.3,5.73,2.38,-29.8,26.2
2012-01-04 01:02:00,0.0,1.9427,0.0009,405.23,0.20,-1.0,0.0,138.16,27.81,24.59,36.29,0.04,-272.74,-272.74,-46,549,-923,22.0,2.0,-29.6,21.9,2.0,-29.4,5.73,2.37,-29.9,26.0
2012-01-04 01:03:00,0.0,1.9414,0.0012,405.27,0.23,-1.0,0.0,138.16,27.78,24.59,36.28,0.04,-272.74,-272.74,-46,548,-925,21.9,2.0,-29.6,21.8,2.0,-29.4,5.73,2.43,-30.0,26.2
2012-01-04 01:04:00,0.0,1.9408,0.0010,405.27,0.23,-0.5,3.0,138.16,27.74,24.59,36.28,0.04,-272.74,-272.74,-47,548,-924,21.9,2.0,-29.7,21.8,2.0,-29.5,5.73,2.38,-29.9,26.4
2012-01-04 01:05:00,0.0,1.9404,0.0011,405.20,0.20,-0.4,4.7,138.16,27.71,24.59,36.28,0.04,-272.74,-272.74,-46,548,-925,21.9,2.0,-29.8,21.8,2.0,-29.6,5.73,2.28,-29.8,26.6
2012-01-04 01:06:00,0.0,1.9405,0.0009,405.32,0.24,-0.7,2.0,138.15,27.69,24.58,36.27,0.04,-272.74,-272.74,-46,548,-924,21.9,2.0,-29.8,21.9,2.0,-29.5,5.73,2.48,-29.7,26.7
2012-01-04 01:07:00,0.0,1.9404,0.0009,405.22,0.24,0.2,3.9,138.15,27.68,24.59,36.28,0.04,-272.74,-272.74,-47,548,-924,21.9,2.0,-29.7,21.9,2.0,-29.5,5.73,2.39,-29.6,26.8
2012-01-04 01:08:00,0.0,1.9408,0.0011,405.15,0.20,-1.0,0.0,138.14,27.68,24.59,36.28,0.04,-272.74,-272.74,-46,548,-924,21.9,2.0,-29.7,21.9,2.0,-29.5,5.73,2.30,-29.5,26.8
2012-01-04 01:09:00,0.0,1.9418,0.0010,405.15,0.22,-1.0,0.4,138.14,27.68,24.59,36.28,0.04,-272.74,-272.74,-46,548,-924,21.9,2.0,-29.7,22.0,2.0,-29.5,5.73,2.50,-29.4,26.8
2012-01-04 01:10:00,0.0,1.9420,0.0008,405.30,0.20,-0.7,2.0,138.14,27.68,24.59,36.28,0.04,-272.74,-272.74,-46,548,-924,22.0,2.0,-29.7,22.0,2.0,-29.4,5.73,2.35,-29.3,26.8
2012-01-04 01:11:00,0.0,1.9417,0.0009,405.19,0.20,-1.0,0.0,138.14,27.69,24.59,36.28,0.04,-272.74,-272.74,-46,548,-924,22.0,2.0,-29.7,22.0,2.0,-29.4,5.73,2.32,-29.3,26.9
2012-01-04 01:12:00,0.0,1.9421,0.0009,405.23,0.21,0.1,6.1,138.13,27.71,24.59,36.28,0.04,-272.74,-272.74,-46,548,-924,22.0,2.0,-29.7,22.1,2.0,-29.5,5.73,2.51,-29.2,26.9
2012-01-04 01:13:00,0.0,1.9429,0.0010,405.18,0.22,-0.6,2.0,138.13,27.72,24.59,36.28,0.04,-272.74,-272.74,-46,548,-924,22.0,1.9,-29.8,22.1,2.0,-29.5,5.73,2.32,-29.1,27.0
2012-01-04 01:14:00,0.0,1.9431,0.0009,405.14,0.22,-0.0,4.1,138.13,27.73,24.59,36.28,0.04,-272.74,-272.74,-46,548,-924,22.1,1.9,-29.9,22.1,2.0,-29.5,5.73,2.37,-29.1,27.0
2012-01-04 01:15:00,0.0,1.9429,0.0009,405.13,0.22,0.6,6.5,138.13,27.74,24.59,36.28,0.04,-272.74,-272.74,-46,548,-924,22.1,1.9,-29.8,22.1,2.0,-29.5,5.73,2.49,-29.0,27.1
2012-01-04 01:16:00,0.0,1.9433,0.0008,405.10,0.18,-0.0,3.8,138.13,27.75,24.59,36.28,0.04,-272.74,-272.74,-46,548,-924,22.1,1.9,-29.9,22.2,2.0,-29.6,5.73,2.29,-28.9,27.1
2012-01-04 01:17:00,0.0,1.9432,0.0011,405.07,0.26,2.7,10.8,138.12,27.76,24.59,36.29,0.04,-272.74,-272.74,-46,548,-924,22.2,1.9,-29.9,22.2,2.0,-29.6,5.73,2.41,-28.8,27.2
2012-01-04 01:18:00,0.0,1.9431,0.0010,405.10,0.19,4.6,12.4,138.12,27.78,24.59,36.28,0.04,-272.74,-272.74,-46,548,-924,22.2,1.9,-29.9,22.2,2.0,-29.6,5.73,2.46,-28.8,27.2
2012-01-04 01:19:00,0.0,1.9433,0.0007,405.18,0.20,5.9,13.1,138.12,27.79,24.59,36.28,0.04,-272.74,-272.74,-46,548,-924,22.2,1.9,-29.9,22.3,2.0,-29.6,5.73,2.28,-28.7,27.3
2012-01-04 01:20:00,0.0,1.9433,0.0010,405.10,0.19,4.8,11.9,138.12,27.80,24.59,36.28,0.04,-272.74,-272.74,-46,548,-924,22.3,1.9,-29.9,22.3,2.0,-29.5,5.73,2.48,-28.7,27.4
2012-01-04 01:21:00,0.0,1.9430,0.0008,405.14,0.19,6.6,15.3,138.12,27.81,24.59,36.28,0.04,-272.74,-272.74,-46,548,-924,22.3,1.9,-29.8,22.3,2.0,-29.5,5.73,2.37,-28.6,27.4
2012-01-04 01:22:00,0.0,1.9424,0.0008,405.21,0.22,8.0,17.8,138.12,27.83,24.59,36.29,0.04,-272.74,-272.74,-46,549,-924,22.3,1.9,-29.8,22.3,2.0,-29.5,5.73,2.33,-28.5,27.5
2012-01-04 01:23:00,0.0,1.9430,0.0010,405.17,0.22,7.6,15.6,138.12,27.84,24.59,36.29,0.04,-272.74,-272.74,-46,549,-924,22.4,1.9,-30.0,22.4,2.0,-29.5,5.73,2.50,-28.5,27.5
2012-01-04 01:24:00,0.0,1.9432,0.0009,405.19,0.22,10.7,21.3,138.11,27.85,24.59,36.29,0.04,-272.74,-272.74,-46,549,-924,22.4,1.9,-29.9,22.4,2.0,-29.5,5.73,2.28,-28.5,27.6
2012-01-04 01:25:00,0.0,1.9436,0.0008,405.11,0.22,12.3,19.4,138.11,27.87,24.59,36.30,0.04,-272.74,-272.74,-46,549,-924,22.4,1.9,-30.0,22.4,1.9,-29.6,5.73,2.46,-28.4,27.7
2012-01-04 01:26:00,0.0,1.9435,0.0008,405.18,0.22,15.0,21.0,138.11,27.88,24.59,36.29,0.04,-272.74,-272.74,-44,550,-925,22.5,1.9,-29.9,22.5,1.9,-29.6,5.73,2.38,-28.4,27.7
2012-01-04 01:27:00,0.0,1.9434,0.0008,405.15,0.19,21.0,25.7,138.11,27.89,24.59,36.30,0.04,-272.73,-272.74,-46,549,-924,22.5,1.9,-29.9,22.5,1.9,-29.6,5.73,2.34,-28.3,27.8
2012-01-04 01:28:00,0.0,1.9439,0.0010,405.11,0.22,15.7,16.9,138.11,27.90,24.59,36.30,0.04,-272.74,-272.74,-46,549,-925,22.5,1.9,-29.9,22.5,1.9,-29.5,5.73,2.49,-28.3,27.8
2012-01-04 01:29:00,0.0,1.9441,0.0009,405.10,0.18,20.8,23.3,138.11,27.91,24.59,36.30,0.04,-272.74,-272.74,-46,549,-926,22.5,1.9,-29.9,22.5,1.9,-29.5,5.73,2.27,-28.2,27.9
2012-01-04 01:30:00,0.0,1.9441,0.0010,405.18,0.21,31.9,27.7,138.11,27.93,24.59,36.29,0.04,-272.74,-272.74,-45,550,-924,22.6,1.9,-30.0,22.6,1.9,-29.5,5.73,2.50,-28.2,27.9
2012-01-04 01:31:00,0.0,1.9442,0.0010,405.21,0.19,26.4,26.6,138.11,27.94,24.59,36.30,0.04,-272.74,-272.74,-46,550,-925,22.6,1.8,-29.9,22.6,1.9,-29.5,5.73,2.31,-28.2,28.0
2012-01-04 01:32:00,0.0,1.9441,0.0008,405.18,0.20,26.0,22.3,138.11,27.96,24.60,36.30,0.04,-272.74,-272.74,-46,550,-924,22.7,1.8,-29.9,22.7,1.9,-29.6,5.73,2.41,-28.1,28.0
2012-01-04 01:33:00,0.0,1.9442,0.0008,405.14,0.22,26.4,25.5,138.11,27.97,24.59,36.30,0.04,-272.74,-272.74,-46,551,-925,22.7,1.8,-29.9,22.7,1.9,-29.6,5.73,2.47,-28.2,27.7
2012-01-04 01:34:00,0.0,1.9442,0.0009,405.27,0.23,11.4,20.0,138.12,27.97,24.59,36.29,0.04,-272.74,-272.74,-46,550,-925,22.6,1.8,-30.0,22.6,1.9,-29.6,5.73,2.39,-28.5,27.4
2012-01-04 01:35:00,0.0,1.9439,0.0009,405.10,0.21,6.9,13.5,138.13,27.97,24.59,36.30,0.04,-272.74,-272.74,-46,550,-925,22.6,1.9,-29.9,22.5,1.9,-29.6,5.73,2.39,-28.7,27.1
2012-01-04 01:36:00,0.0,1.9443,0.0010,405.21,0.20,3.2,9.6,138.13,27.95,24.59,36.29,0.04,-272.74,-272.74,-46,550,-925,22.5,1.9,-29.8,22.4,2.0,-29.5,5.73,2.40,-29.0,26.9
2012-01-04 01:37:00,0.0,1.9440,0.0010,405.32,0.20,0.7,6.4,138.14,27.93,24.59,36.29,0.04,-272.74,-272.74,-46,550,-925,22.4,1.9,-29.9,22.3,2.0,-29.6,5.73,2.41,-29.2,26.7
2012-01-04 01:38:00,0.0,1.9436,0.0008,405.44,0.20,-0.9,0.5,138.15,27.91,24.59,36.29,0.04,-272.73,-272.74,-46,550,-925,22.3,1.9,-29.9,22.2,2.0,-29.6,5.73,2.40,-29.4,26.5
2012-01-04 01:39:00,0.0,1.9428,0.0010,405.39,0.24,-1.0,0.0,138.15,27.88,24.59,36.29,0.04,-272.74,-272.74,-46,550,-925,22.2,1.9,-29.9,22.1,2.0,-29.6,5.73,2.40,-29.6,26.4
2012-01-04 01:40:00,0.0,1.9424,0.0008,405.35,0.23,-1.0,0.0,138.16,27.84,24.59,36.28,0.04,-272.74,-272.73,-47,548,-926,22.1,1.9,-29.8,22.0,2.0,-29.6,5.73,2.40,-29.8,26.2
2012-01-04 01:41:00,0.0,1.9420,0.0010,405.23,0.21,-1.0,0.0,138.16,27.81,24.59,36.29,0.04,-272.75,-272.75,-47,549,-924,22.0,1.9,-29.9,21.9,2.0,-29.6,5.73,2.39,-30.0,26.0
2012-01-04 01:42:00,0.0,1.9406,0.0011,405.25,0.23,-0.7,1.8,138.16,27.77,24.59,36.28,0.04,-272.74,-272.74,-46,549,-924,21.9,1.9,-30.0,21.8,2.0,-29.8,5.73,2.36,-30.1,26.1
2012-01-04 01:43:00,0.0,1.9397,0.0008,405.19,0.20,-0.9,0.7,138.16,27.74,24.59,36.28,0.04,-272.74,-272.74,-46,549,-925,21.9,1.9,-30.1,21.8,2.0,-29.9,5.73,2.29,-30.0,26.4
2012-01-04 01:44:00,0.0,1.9399,0.0008,405.23,0.20,-0.3,3.9,138.16,27.71,24.59,36.27,0.04,-272.74,-272.74,-46,549,-924,21.9,1.9,-30.1,21.9,2.0,-29.8,5.73,2.42,-30.0,26.6
2012-01-04 01:45:00,0.0,1.9397,0.0010,405.19,0.21,-1.0,0.2,138.15,27.69,24.59,36.28,0.04,-272.74,-272.74,-46,548,-924,21.9,1.9,-30.1,21.9,2.0,-29.8,5.73,2.47,-29.8,26.7
2012-01-04 01:46:00,0.0,1.9400,0.0012,405.19,0.22,-0.7,1.1,138.15,27.68,24.59,36.28,0.04,-272.74,-272.74,-47,548,-924,21.9,1.9,-30.2,21.9,1.9,-29.9,5.73,2.27,-29.7,26.7
2012-01-04 01:47:00,0.0,1.9414,0.0010,405.19,0.21,-0.8,1.3,138.15,27.68,24.58,36.28,0.04,-272.74,-272.74,-46,548,-924,21.9,1.9,-30.1,22.0,1.9,-29.8,5.73,2.46,-29.6,26.8
2012-01-04 01:48:00,0.0,1.9414,0.0009,405.27,0.24,-0.8,1.8,138.14,27.68,24.59,36.28,0.04,-272.74,-272.74,-46,548,-924,22.0,1.9,-30.0,22.0,2.0,-29.7,5.73,2.43,-29.5,26.8
2012-01-04 01:49:00,0.0,1.9423,0.0007,405.30,0.20,0.1,5.3,138.14,27.69,24.59,36.28,0.04,-272.74,-272.74,-46,548,-924,22.0,1.9,-30.0,22.0,2.0,-29.7,5.73,2.28,-29.4,26.9
2012-01-04 01:50:00,0.0,1.9427,0.0008,405.30,0.23,-1.0,0.0,138.14,27.70,24.59,36.28,0.04,-272.74,-272.74,-46,548,-924,22.0,1.9,-30.0,22.1,2.0,-29.7,5.73,2.48,-29.4,26.9
2012-01-04 01:51:00,0.0,1.9432,0.0008,405.29,0.20,-0.9,0.7,138.13,27.71,24.59,36.28,0.04,-272.74,-272.74,-46,548,-924,22.0,1.9,-30.0,22.1,2.0,-29.7,5.73,2.38,-29.3,27.0
2012-01-04 01:52:00,0.0,1.9438,0.0010,405.17,0.24,-0.0,4.4,138.13,27.72,24.59,36.28,0.04,-272.74,-272.74,-46,548,-924,22.1,1.9,-30.0,22.1,2.0,-29.6,5.73,2.30,-29.2,27.0
2012-01-04 01:53:00,0.0,1.9438,0.0011,405.13,0.26,-0.7,2.0,138.13,27.73,24.59,36.29,0.04,-272.74,-272.74,-46,548,-924,22.1,1.9,-30.1,22.1,2.0,-29.6,5.73,2.50,-29.1,27.1
2012-01-04 01:54:00,0.0,1.9448,0.0010,405.10,0.18,-0.8,1.5,138.12,27.74,24.59,36.29,0.04,-272.74,-272.74,-46,548,-924,22.1,1.9,-30.1,22.2,1.9,-29.7,5.73,2.33,-29.0,27.1
2012-01-04 01:55:00,0.0,1.9455,0.0010,405.10,0.23,2.6,11.0,138.12,27.75,24.59,36.28,0.04,-272.74,-272.74,-46,548,-924,22.1,1.9,-30.0,22.2,2.0,-29.6,5.73,2.36,-29.0,27.1
2012-01-04 01:56:00,0.0,1.9455,0.0010,405.08,0.24,2.0,10.2,138.12,27.77,24.59,36.29,0.04,-272.74,-272.74,-46,548,-924,22.2,1.9,-29.9,22.2,2.0,-29.6,5.73,2.49,-28.9,27.2
2012-01-04 01:57:00,0.0,1.9457,0.0009,405.11,0.21,1.0,5.9,138.12,27.78,24.59,36.29,0.04,-272.74,-272.74,-46,548,-924,22.2,1.9,-29.9,22.3,2.0,-29.5,5.73,2.28,-28.9,27.3
2012-01-04 01:58:00,0.0,1.9455,0.0009,405.14,0.19,5.9,13.0,138.12,27.79,24.59,36.29,0.04,-272.74,-272.74,-46,548,-924,22.2,1.9,-29.9,22.3,2.0,-29.6,5.73,2.45,-28.8,27.3
2012-01-04 01:59:00,0.0,1.9453,0.0011,405.17,0.20,4.4,12.8,138.12,27.81,24.59,36.29,0.04,-272.74,-272.74,-46,548,-924,22.3,1.9,-29.8,22.3,2.0,-29.5,5.73,2.41,-28.7,27.4
2012-01-04 02:00:00,0.0,1.9449,0.0008,405.27,0.25,7.4,17.0,138.12,27.82,24.59,36.28,0.04,-272.74,-272.74,-46,549,-924,22.3,1.9,-30.0,22.3,1.9,-29.6,5.73,2.30,-28.7,27.5
2012-01-04 02:01:00,0.0,1.9458,0.0010,405.20,0.22,11.5,19.2,138.12,27.83,24.59,36.29,0.04,-272.74,-272.74,-46,549,-924,22.3,1.9,-29.9,22.4,1.9,-29.6,5.73,2.50,-28.7,27.5
2012-01-04 02:02:00,0.0,1.9461,0.0010,405.27,0.18,14.4,21.9,138.11,27.84,24.59,36.29,0.04,-272.74,-272.74,-46,549,-924,22.4,1.9,-29.9,22.4,1.9,-29.6,5.73,2.29,-28.6,27.5
2012-01-04 02:03:00,0.0,1.9463,0.0009,405.18,0.23,12.9,19.1,138.11,27.85,24.59,36.29,0.04,-272.74,-272.74,-46,549,-924,22.4,1.9,-29.9,22.4,1.9,-29.6,5.73,2.42,-28.5,27.6
2012-01-04 02:04:00,0.0,1.9468,0.0008,405.33,0.19,13.8,20.6,138.11,27.87,24.59,36.29,0.04,-272.74,-272.75,-46,549,-926,22.4,1.9,-29.9,22.5,1.9,-29.6,5.73,2.42,-28.5,27.7
2012-01-04 02:05:00,0.0,1.9468,0.0010,405.26,0.21,20.6,27.1,138.11,27.88,24.59,36.29,0.04,-272.74,-272.75,-46,548,-924,22.5,1.9,-30.0,22.5,1.9,-29.6,5.73,2.31,-28.5,27.7
2012-01-04 02:06:00,0.0,1.9466,0.0007,405.17,0.19,14.0,19.0,138.11,27.89,24.59,36.30,0.04,-272.74,-272.74,-46,550,-924,22.5,1.8,-30.0,22.5,1.9,-29.6,5.73,2.50,-28.4,27.8
2012-01-04 02:07:00,0.0,1.9469,0.0009,405.24,0.19,21.2,26.6,138.11,27.91,24.59,36.30,0.04,-272.74,-272.74,-46,549,-924,22.6,1.8,-30.0,22.5,1.9,-29.6,5.73,2.27,-28.4,27.8
2012-01-04 02:08:00,0.0,1.9469,0.0010,405.23,0.18,15.8,21.5,138.11,27.92,24.59,36.29,0.04,-272.74,-272.73,-47,550,-925,22.6,1.8,-30.0,22.6,1.9,-29.7,5.73,2.48,-28.3,27.9
2012-01-04 02:09:00,0.0,1.9471,0.0009,405.24,0.20,20.8,24.5,138.11,27.93,24.59,36.29,0.04,-272.74,-272.74,-46,550,-924,22.6,1.8,-30.0,22.6,1.9,-29.7,5.73,2.33,-28.3,28.0
2012-01-04 02:10:00,0.0,1.9472,0.0011,405.34,0.25,22.7,24.4,138.11,27.95,24.59,36.29,0.04,-272.74,-272.74,-46,550,-924,22.7,1.9,-29.9,22.7,1.9,-29.6,5.73,2.38,-28.3,27.9
2012-01-04 02:11:00,0.0,1.9468,0.0008,405.26,0.17,13.3,19.4,138.11,27.96,24.59,36.30,0.04,-272.74,-272.74,-46,551,-925,22.7,1.8,-29.9,22.7,1.9,-29.6,5.73,2.48,-28.4,27.5
2012-01-04 02:12:00,0.0,1.9470,0.0008,405.39,0.23,6.3,15.5,138.12,27.96,24.59,36.30,0.04,-272.74,-272.74,-46,551,-925,22.6,1.9,-29.9,22.6,1.9,-29.7,5.73,2.41,-28.6,27.3
2012-01-04 02:13:00,0.0,1.9473,0.0008,405.42,0.23,3.3,8.4,138.13,27.95,24.59,36.29,0.04,-272.74,-272.74,-46,550,-925,22.6,1.8,-30.0,22.5,1.9,-29.7,5.73,2.40,-28.9,27.1
2012-01-04 02:14:00,0.0,1.9466,0.0009,405.35,0.22,1.0,6.9,138.13,27.94,24.59,36.29,0.04,-272.74,-272.74,-46,550,-925,22.5,1.8,-30.0,22.4,1.9,-29.8,5.73,2.40,-29.1,26.8
2012-01-04 02:15:00,0.0,1.9464,0.0011,405.45,0.22,-0.3,3.3,138.14,27.92,24.59,36.29,0.04,-272.74,-272.74,-46,550,-925,22.4,1.9,-30.0,22.3,1.9,-29.8,5.73,2.39,-29.4,26.6
2012-01-04 02:16:00,0.0,1.9458,0.0008,405.52,0.24,-0.1,4.7,138.15,27.89,24.59,36.28,0.04,-272.74,-272.74,-46,550,-925,22.3,1.9,-30.0,22.2,1.9,-29.7,5.73,2.39,-29.6,26.5
2012-01-04 02:17:00,0.0,1.9449,0.0011,405.48,0.24,-0.6,2.9,138.15,27.86,24.59,36.29,0.04,-272.74,-272.74,-46,550,-925,22.2,1.9,-30.0,22.1,2.0,-29.7,5.73,2.39,-29.7,26.4
2012-01-04 02:18:00,0.0,1.9442,0.0009,405.47,0.21,-1.0,0.0,138.16,27.83,24.59,36.28,0.04,-272.74,-272.74,-46,550,-924,22.1,1.9,-30.0,22.0,2.0,-29.7,5.73,2.39,-29.9,26.2